To NAV CANADA Home Page Login to a new session Search on AWWS site Feedback and Comments Disclaimer Vers la page française équivalente Tips FAQ What's new on the site To the Forecasts and Observations / NOTAM section To "File a Flight Plan" website Publications and other links Update of the User's profile FIC Telephone Numbers My Weather Data Folder Route Weather Data Regional Weather Data Local Weather Data To the Forecasts and Observations / NOTAM section
Request Generated 10/20/2016 at 19:29:56 UTC . Weather information available at that time is displayed.



METAR CYMU 201900Z 10013KT 15SM BKN067 01/M03 A3010 RMK AC6 SLP202=
METAR CYMU 201800Z 12012G17KT 15SM BKN026 01/M04 A3011 RMK SC7
LWIS CYMU 201700Z AUTO 11009KT 01/M04 A3013=

CYMU - No TAF is issued for this station

Your time UTC time
Weather data provided by Environment Canada and NAV CANADA